Temp
27 30 31 33 35 38 39 38 39 39 39 40 40 41 39 40 40 41 41 42 45 48 51 51 50 51 50 49 48 46 42 41 43 41 41 40 40 39 40 42 42 43 46
23 25 27 28 31 33 36 37 37 38 39 39 38 38 38 38 38 39 40 41 42 43 47 48 49 50 48 48 46 46 44 43 46 45 41 39 41 39 39 39 41 41 42
20 22 23 24 27 28 31 35 35 36 36 38 39 39 39 39 38 37 37 39 41 41 42 44 47 47 48 47 47 47 47 44 43 48 43 37 39 35 37 37 38 38 40
20 21 22 22 23 25 29 32 34 34 36 37 37 36 36 34 33 34 35 36 40 40 41 42 43 44 45 46 48 49 48 49 42 42 44 41 39 36 34 36 36 38 39
18 18 19 21 22 24 26 28 30 32 34 35 35 34 33 33 34 34 34 34 36 39 40 41 41 41 43 43 44 46 46 50 48 45 39 38 38 39 36 32 33 35 37
16 17 19 21 19 21 23 25 27 27 30 32 33 32 31 32 32 32 32 32 33 35 37 40 40 40 40 42 42 41 41 43 44 41 42 38 38 35 36 34 33 34 34
15 15 15 15 17 17 19 23 23 23 26 27 30 32 30 30 30 30 30 30 31 32 32 36 38 39 40 40 40 40 40 39 39 40 40 42 42 41 38 40 35 30 33
13 13 13 13 13 15 15 17 20 21 23 25 26 28 31 30 30 30 30 30 30 31 32 33 33 35 38 39 39 38 38 39 38 38 38 38 40 40 40 38 36 31 31
10 10 11 11 11 12 13 14 16 19 20 22 24 25 26 28 29 29 30 30 30 32 32 32 32 33 33 34 36 36 36 36 35 37 38 37 37 39 39 41 41 36 28
9 9 10 10 11 11 12 13 14 15 18 20 22 23 24 25 27 28 28 29 30 30 30 31 32 32 32 32 32 32 33 33 33 33 33 32 33 35 38 39 40 35 34
8 8 9 10 10 11 11 11 12 13 15 18 19 20 22 23 25 25 26 27 28 29 29 28 29 31 31 32 32 32 32 32 32 32 32 32 31 31 33 36 35 35 34
9 9 9 9 9 9 9 9 10 11 13 15 16 17 19 20 21 22 24 25 26 28 27 28 27 27 28 30 30 30 31 31 30 31 31 30 33 30 31 33 34 34 33
9 9 8 8 7 7 7 8 9 9 11 13 13 13 15 16 17 20 22 23 24 25 27 27 26 27 27 27 27 28 28 28 29 29 29 29 29 28 28 30 31 32 35
10 9 8 7 7 7 6 6 7 8 9 11 10 10 11 13 14 17 19 20 22 22 23 25 26 26 27 28 28 27 26 27 27 28 28 27 28 27 28 29 29 31 31
10 10 8 7 7 6 5 4 4 5 6 7 7 8 10 11 13 14 15 17 18 20 22 22 23 24 26 29 27 28 26 27 26 27 29 28 33 35 33 30 27 28 28
8 9 10 9 8 6 4 3 1 1 0 2 3 6 8 9 10 11 12 13 14 16 18 19 20 21 24 33 34 29 26 26 26 26 27 29 31 33 37 37 36 31 27
7 8 8 7 7 6 5 -1 -2 -6 -5 -6 -0 0 3 6 7 9 10 10 11 13 15 16 18 19 20 31 33 32 26 26 25 25 26 28 30 29 29 33 36 36 37
8 8 7 7 6 3 2 -6 -6 -7 -11 -10 -10 -5 -4 -0 3 4 6 9 10 10 13 15 16 17 21 29 30 30 22 22 24 26 26 26 26 27 28 28 28 28 29
8 8 7 6 4 3 -2 -9 -8 -11 -14 -12 -12 -11 -11 -10 -4 -2 -3 4 6 10 13 15 14 12 16 24 27 27 24 25 24 27 26 27 27 30 32 28 27 27 28
9 8 7 4 2 3 -7 -6 -9 -13 -9 -10 -12 -15 -14 -13 -12 -12 -9 -6 3 11 12 12 12 15 12 19 24 25 24 20 24 25 27 29 29 31 32 29 26 25 26
8 8 6 5 5 2 -7 -8 -10 -9 -6 -10 -13 -12 -14 -14 -17 -17 -15 -13 -7 3 1 6 7 10 13 14 22 25 22 22 22 23 24 27 30 31 32 32 28 26 29
12 13 7 7 8 6 0 0 -3 -1 -5 -10 -10 -10 -11 -8 -7 -16 -19 -16 -16 -13 -7 -6 2 8 10 17 19 23 25 25 22 22 24 24 29 30 31 31 31 32 33
12 10 7 7 6 5 3 3 3 1 -1 -5 -7 -10 -9 -8 -10 -14 -14 -15 -19 -18 -14 -9 -6 1 10 11 18 20 21 23 22 24 24 27 26 28 30 31 32 31 27
11 11 9 7 6 6 10 5 5 1 -4 -4 -4 -7 -11 -8 -11 1 -6 -14 -15 -16 -15 -13 -9 -5 1 6 10 14 12 17 19 21 17 20 25 27 25 23 23 24 25
12 11 9 9 8 7 6 5 8 5 2 -1 -2 -4 -2 -6 -8 -6 -9 -12 -7 -6 -7 -5 -5 -6 -4 5 15 16 15 13 17 20 11 12 15 16 17 19 21 22 22
9 8 9 8 8 6 5 6 6 5 2 1 3 0 -3 -7 -2 -6 -6 11 15 19 20 22 16 7 15 21 23 24 26 26 27 21 16 13 13 13 14 15 17 19 21
MSLP
1017.82 1017.60 1016.77 1016.06 1015.11 1014.51 1014.17 1014.11 1013.79 1013.75 1013.16 1012.97 1013.18 1013.20 1013.20 1013.34 1013.60 1013.35 1013.82 1013.57 1014.17 1012.97 1012.98 1013.61 1014.29 1014.83 1015.43 1016.22 1017.23 1018.16 1018.91 1020.26 1020.55 1020.86 1022.94 1023.84 1024.04 1024.55 1024.54 1024.22 1023.79 1024.19 1023.94
1018.67 1018.42 1017.70 1016.94 1016.26 1015.84 1015.47 1015.02 1014.86 1014.71 1014.18 1014.03 1014.23 1014.12 1014.16 1013.95 1014.38 1014.15 1014.62 1013.55 1014.64 1014.43 1014.27 1013.93 1014.49 1014.89 1015.60 1016.44 1017.03 1017.53 1018.93 1019.88 1019.93 1020.55 1022.25 1024.27 1024.85 1025.43 1025.21 1025.10 1025.11 1025.23 1025.09
1019.86 1019.54 1018.86 1018.22 1017.64 1017.06 1016.60 1016.30 1015.90 1015.35 1015.14 1014.63 1014.36 1014.39 1014.17 1014.24 1014.53 1014.45 1015.13 1015.34 1014.58 1013.89 1015.24 1014.76 1015.06 1014.88 1015.97 1016.31 1016.68 1017.18 1017.47 1018.96 1019.99 1019.89 1020.50 1023.04 1024.41 1025.93 1026.28 1026.18 1026.12 1026.17 1025.63
1020.95 1020.59 1019.73 1019.49 1019.38 1018.71 1017.83 1017.43 1016.82 1016.47 1016.14 1015.61 1015.13 1015.07 1015.15 1015.27 1016.08 1016.02 1015.49 1015.15 1015.78 1015.80 1015.14 1015.76 1015.61 1016.16 1015.63 1016.91 1017.44 1016.98 1017.15 1017.46 1018.83 1020.16 1020.31 1020.44 1021.43 1024.01 1026.55 1026.82 1026.98 1027.04 1026.25
1021.98 1020.90 1021.30 1021.30 1020.88 1020.19 1019.34 1018.70 1018.27 1017.67 1017.20 1016.72 1016.25 1015.95 1016.17 1016.20 1016.59 1016.30 1016.63 1016.64 1016.93 1016.37 1015.99 1016.14 1016.10 1016.63 1016.58 1017.01 1017.75 1018.00 1017.63 1017.64 1017.80 1018.57 1019.96 1020.52 1021.20 1021.83 1023.47 1025.97 1027.19 1027.22 1027.08
1022.52 1022.32 1022.44 1022.25 1021.87 1021.13 1020.54 1019.92 1019.42 1018.94 1018.53 1017.90 1017.27 1017.08 1017.09 1017.15 1017.12 1017.28 1017.03 1016.85 1017.20 1016.82 1016.32 1016.85 1016.45 1017.44 1017.04 1017.52 1016.94 1018.72 1018.54 1018.74 1018.53 1019.09 1019.12 1019.80 1019.88 1021.74 1022.38 1024.53 1026.27 1026.86 1027.63
1023.55 1023.37 1023.57 1023.38 1023.12 1022.66 1022.19 1021.57 1020.94 1020.50 1019.83 1019.25 1018.48 1018.27 1018.14 1018.03 1017.67 1018.16 1017.79 1017.99 1017.96 1018.52 1017.75 1018.58 1017.74 1016.89 1018.19 1017.44 1016.54 1018.95 1018.99 1019.37 1019.92 1019.62 1019.28 1019.80 1019.70 1020.30 1020.87 1022.06 1024.26 1026.22 1027.74
1024.58 1024.75 1025.27 1024.96 1024.83 1024.34 1023.86 1023.26 1022.55 1021.88 1021.21 1020.68 1020.10 1019.59 1019.15 1019.02 1018.92 1018.86 1018.26 1019.14 1019.67 1019.36 1018.23 1019.03 1018.28 1017.73 1018.67 1018.93 1017.91 1018.25 1019.25 1020.34 1019.83 1020.37 1020.55 1020.38 1020.35 1020.32 1020.75 1021.57 1022.67 1025.70 1027.19
1025.87 1026.29 1026.33 1026.22 1026.14 1025.75 1025.42 1024.76 1023.97 1023.16 1022.55 1022.18 1021.50 1021.12 1020.61 1020.27 1020.03 1020.09 1020.11 1020.22 1019.35 1019.93 1018.29 1019.76 1018.86 1019.23 1019.76 1018.90 1018.72 1019.42 1020.10 1020.39 1020.77 1020.67 1020.52 1021.27 1021.15 1021.39 1021.22 1021.52 1022.17 1023.06 1025.39
1026.87 1027.18 1027.44 1027.61 1027.56 1027.38 1026.71 1025.92 1025.25 1024.59 1024.28 1023.68 1022.98 1022.45 1022.04 1021.77 1021.59 1021.31 1021.11 1020.98 1020.80 1020.19 1019.80 1020.45 1019.40 1019.99 1020.01 1019.17 1019.79 1020.08 1020.01 1020.47 1020.74 1020.91 1021.31 1021.91 1021.82 1021.83 1022.22 1022.34 1021.98 1023.21 1023.76
1027.98 1028.57 1028.83 1028.74 1028.70 1028.45 1027.74 1027.30 1026.45 1025.85 1025.23 1024.72 1024.38 1023.97 1023.73 1023.39 1022.87 1022.51 1022.29 1022.06 1021.94 1021.79 1021.57 1020.68 1021.15 1020.85 1020.71 1019.92 1020.75 1020.76 1020.74 1021.12 1021.48 1021.24 1021.96 1021.70 1022.29 1021.83 1022.76 1022.77 1022.41 1023.22 1023.46
1028.93 1029.18 1029.24 1029.42 1029.43 1029.28 1028.93 1028.40 1027.91 1027.30 1026.81 1026.31 1025.82 1025.47 1025.21 1024.63 1024.12 1023.84 1023.36 1023.06 1022.88 1022.57 1022.43 1022.12 1022.12 1021.75 1021.26 1021.56 1022.05 1021.78 1021.38 1021.58 1021.71 1021.73 1021.51 1022.09 1022.19 1022.48 1022.67 1023.35 1023.56 1023.45 1023.49
1029.40 1029.61 1029.82 1030.18 1030.33 1030.09 1029.79 1029.60 1029.24 1028.69 1028.11 1027.64 1027.34 1026.99 1026.58 1026.09 1025.72 1025.34 1024.98 1024.54 1023.97 1023.51 1023.13 1022.84 1022.90 1022.79 1022.99 1022.87 1022.86 1022.49 1021.97 1022.29 1022.50 1022.30 1022.72 1022.47 1022.58 1022.93 1023.18 1023.60 1024.01 1023.92 1023.99
1029.85 1030.28 1030.62 1030.90 1030.92 1030.73 1030.70 1030.64 1030.33 1029.88 1029.32 1028.81 1028.54 1028.29 1028.05 1027.69 1027.12 1026.66 1026.34 1025.80 1025.21 1024.86 1024.48 1024.15 1023.84 1023.77 1023.77 1023.54 1023.21 1022.90 1022.98 1023.31 1023.27 1023.11 1023.33 1023.55 1023.61 1023.14 1023.24 1023.57 1024.37 1024.49 1024.65
1030.20 1030.64 1031.05 1031.21 1031.29 1031.34 1031.47 1031.34 1031.29 1030.91 1030.48 1030.13 1029.72 1029.45 1029.08 1028.62 1028.22 1027.77 1027.33 1026.92 1026.47 1026.22 1025.86 1025.40 1025.03 1024.87 1024.49 1024.07 1023.91 1023.90 1024.05 1024.08 1023.93 1023.79 1024.22 1023.82 1023.57 1023.41 1023.53 1023.85 1024.26 1024.51 1024.82
1030.72 1030.95 1031.14 1031.33 1031.60 1031.84 1032.16 1031.96 1032.01 1031.87 1031.43 1031.10 1030.95 1030.62 1030.17 1029.78 1029.33 1028.82 1028.46 1028.05 1027.70 1027.16 1026.84 1026.44 1026.20 1025.78 1025.36 1024.18 1023.94 1023.85 1024.21 1024.40 1024.64 1025.00 1024.94 1024.44 1024.07 1023.88 1023.66 1023.92 1024.23 1024.46 1024.63
1031.01 1031.06 1031.35 1031.58 1031.79 1032.10 1032.40 1032.52 1032.65 1032.49 1032.26 1032.19 1031.78 1031.49 1031.17 1030.82 1030.59 1030.24 1029.74 1029.23 1028.84 1028.37 1027.84 1027.30 1026.96 1026.74 1026.14 1025.05 1024.63 1024.62 1025.26 1025.35 1025.38 1025.40 1025.08 1024.88 1024.65 1024.72 1024.67 1024.35 1024.18 1024.50 1024.62
1030.96 1031.01 1030.95 1031.28 1031.52 1031.92 1032.37 1032.83 1033.10 1033.18 1033.07 1032.99 1032.56 1032.10 1031.94 1031.79 1031.47 1031.14 1030.81 1030.32 1029.90 1029.40 1028.79 1028.36 1027.90 1027.58 1027.01 1025.89 1025.57 1025.17 1025.64 1025.54 1025.51 1025.44 1025.26 1025.40 1024.95 1025.12 1025.10 1025.04 1025.11 1025.11 1025.27
1030.61 1030.81 1030.79 1030.92 1031.26 1031.65 1032.14 1032.88 1033.12 1033.54 1033.75 1033.55 1033.48 1032.82 1032.50 1032.30 1032.12 1031.91 1031.65 1031.16 1030.65 1030.06 1029.58 1029.29 1029.02 1028.54 1027.97 1027.22 1026.51 1026.09 1026.13 1026.05 1025.81 1025.69 1025.63 1025.19 1025.40 1025.39 1024.95 1024.98 1025.35 1025.31 1025.41
1030.16 1030.33 1030.34 1030.64 1031.07 1031.17 1031.77 1032.39 1032.56 1032.72 1032.73 1032.87 1032.88 1032.79 1032.75 1032.69 1032.65 1032.35 1031.97 1031.62 1031.28 1030.76 1030.46 1030.00 1029.70 1029.20 1028.85 1028.03 1026.97 1026.56 1026.61 1026.56 1026.21 1025.99 1025.66 1025.48 1025.34 1025.34 1025.21 1025.02 1025.34 1025.47 1025.69
1029.49 1029.56 1029.88 1030.28 1030.39 1030.68 1031.48 1031.81 1031.99 1032.06 1031.90 1031.85 1032.00 1032.18 1032.39 1032.42 1032.50 1032.55 1032.32 1032.02 1031.60 1031.35 1030.91 1030.50 1030.11 1029.52 1028.87 1028.50 1027.46 1026.75 1026.46 1026.43 1026.36 1026.33 1026.19 1025.95 1025.42 1025.18 1025.16 1024.72 1024.96 1025.00 1025.20
1028.83 1028.90 1029.31 1029.50 1029.53 1029.88 1030.70 1031.07 1031.36 1030.90 1031.35 1031.51 1031.75 1031.85 1031.82 1032.03 1032.17 1032.18 1032.18 1032.08 1031.81 1031.77 1031.38 1030.82 1029.90 1029.32 1028.95 1028.22 1027.70 1027.00 1026.51 1026.11 1026.10 1026.10 1026.04 1026.01 1025.60 1025.19 1025.04 1024.76 1024.71 1024.66 1024.35
1028.21 1028.24 1028.65 1028.78 1028.83 1029.13 1029.54 1029.91 1029.72 1030.11 1030.54 1030.92 1031.26 1031.37 1031.50 1031.70 1031.86 1032.03 1032.01 1032.29 1031.95 1032.13 1031.58 1031.10 1030.33 1029.62 1028.82 1028.15 1027.64 1027.28 1026.81 1026.75 1026.32 1026.02 1026.14 1025.70 1025.68 1025.19 1024.66 1024.39 1024.29 1024.42 1024.61
1027.70 1027.78 1028.03 1028.18 1028.27 1028.33 1028.46 1028.80 1028.88 1029.18 1029.74 1030.33 1030.61 1030.77 1031.23 1031.25 1031.35 1031.47 1031.43 1031.78 1032.14 1031.72 1031.19 1030.72 1030.22 1029.39 1028.80 1028.11 1027.84 1027.60 1027.54 1027.04 1026.44 1026.04 1026.20 1026.18 1025.52 1025.07 1025.05 1025.37 1025.37 1024.80 1024.69
1027.37 1027.36 1027.38 1027.39 1027.31 1027.41 1027.62 1027.75 1028.00 1028.47 1029.16 1029.46 1029.82 1030.17 1030.22 1030.59 1030.71 1030.73 1030.55 1030.22 1030.19 1029.94 1029.68 1029.09 1029.05 1028.96 1028.49 1027.63 1027.03 1026.39 1026.10 1025.96 1025.92 1025.72 1025.95 1025.90 1025.77 1025.55 1025.39 1025.28 1025.28 1025.28 1025.17
1026.98 1026.83 1026.66 1026.70 1026.60 1026.70 1026.79 1026.85 1027.07 1027.61 1028.21 1028.58 1029.02 1029.14 1029.63 1030.08 1030.21 1030.36 1029.73 1028.75 1028.07 1027.55 1027.05 1026.52 1026.46 1027.45 1026.92 1026.19 1025.54 1025.23 1025.06 1024.82 1024.42 1024.50 1025.17 1025.49 1025.78 1025.75 1025.49 1025.29 1025.18 1025.03 1025.03
Wind_Speed
11 12 14 15 15 15 14 14 14 12 9 5 4 3 3 2 4 8 7 11 9 8 4 7 10 9 11 12 11 11 15 8 11 9 8 9 10 10 6 7 8 8 8
12 14 15 15 16 15 14 14 14 12 9 5 3 3 1 3 2 4 7 9 8 10 6 5 6 8 9 12 14 14 9 5 7 7 4 3 4 5 8 7 7 7 6
12 13 15 15 14 15 15 14 13 12 10 9 2 1 2 3 3 3 3 5 9 10 8 8 3 6 6 9 13 13 12 11 4 8 6 5 4 3 5 7 6 6 5
12 13 15 16 15 14 14 15 13 13 11 11 7 7 3 3 4 2 4 7 5 7 8 7 8 4 6 4 7 12 10 13 10 3 1 4 6 6 4 3 3 4 6
11 16 15 14 14 15 12 13 14 14 13 11 10 6 7 5 3 4 6 6 6 5 8 6 9 5 4 6 4 3 2 7 9 8 4 4 4 5 5 5 3 2 2
12 14 14 14 14 15 14 14 15 15 14 12 12 11 9 6 5 6 5 6 4 6 9 7 7 3 6 2 6 4 5 5 2 1 4 3 6 5 5 5 4 4 1
12 14 15 14 15 16 16 14 16 16 15 15 14 11 10 9 9 6 5 7 6 4 7 4 5 6 3 5 8 3 2 4 3 3 3 2 1 4 3 4 6 4 2
12 14 13 13 13 15 15 14 15 15 16 15 15 13 10 7 7 8 7 7 2 3 7 4 6 9 6 3 8 7 4 2 3 3 4 3 3 3 3 4 11 6 2
12 13 14 14 14 14 14 14 14 15 16 15 13 14 13 12 9 9 7 5 8 5 10 6 7 5 3 6 7 4 6 5 3 1 3 2 3 2 1 6 8 6 8
12 12 12 13 12 12 11 13 13 14 13 13 13 12 13 13 12 10 11 10 8 9 9 6 9 7 5 6 5 3 4 5 4 5 6 4 4 4 1 4 8 3 2
10 10 9 10 10 10 12 12 13 14 14 13 13 13 13 13 12 12 11 10 10 9 9 10 7 7 6 8 5 4 4 5 4 4 3 6 4 4 3 2 3 3 2
8 7 8 8 10 10 11 12 12 12 12 12 12 13 12 12 13 13 13 12 11 10 9 9 10 9 9 7 5 5 5 4 4 3 4 4 2 4 4 2 2 2 2
8 7 8 8 8 8 9 10 11 11 10 11 11 11 12 12 13 12 12 12 11 11 11 11 10 10 9 8 6 5 6 5 4 4 2 3 3 3 3 1 1 1 0
7 6 5 5 5 7 8 8 9 9 9 9 10 10 11 10 10 10 11 12 11 11 11 10 9 9 7 8 9 9 7 4 4 4 4 3 1 3 4 5 3 1 2
7 6 4 3 4 5 6 6 7 7 7 8 9 9 8 9 9 10 10 10 11 10 10 10 9 9 7 4 4 4 5 6 6 6 3 3 4 5 3 1 1 5 2
4 4 4 4 4 4 4 4 5 6 5 6 7 7 8 8 9 9 9 10 10 10 10 10 9 9 7 17 16 2 4 5 4 4 5 6 9 6 5 5 4 3 1
5 4 4 2 1 1 1 3 4 4 5 4 5 5 6 7 8 7 8 8 9 8 8 8 8 8 9 16 16 16 5 3 3 3 3 3 3 7 6 8 5 3 4
4 5 3 4 3 1 1 1 0 3 3 4 4 4 5 5 5 6 7 7 6 6 7 7 9 8 8 15 14 13 5 5 5 3 3 3 3 3 3 3 4 4 4
4 5 4 3 3 4 2 1 1 3 2 0 1 2 3 4 5 5 4 3 5 5 5 7 7 8 8 15 16 11 7 5 5 5 5 4 3 7 10 4 5 4 5
5 6 5 3 4 5 2 0 3 3 3 2 3 3 2 1 2 3 4 3 3 5 6 7 6 10 6 14 13 11 4 5 5 4 5 10 9 11 13 7 6 6 5
6 4 4 6 7 4 4 4 2 5 5 4 2 2 2 2 3 2 2 3 3 5 4 6 5 4 6 7 12 12 4 4 4 5 4 4 10 12 15 14 6 8 7
6 5 4 5 6 5 6 6 6 6 5 4 3 4 3 3 0 0 2 2 3 3 4 5 5 5 5 11 10 12 12 10 4 4 4 5 13 14 15 14 14 14 13
6 3 5 6 5 5 6 6 7 5 5 4 5 4 3 3 2 1 4 3 2 2 4 2 3 5 6 5 13 13 11 11 9 6 8 12 11 13 15 18 19 15 5
7 6 6 6 7 5 7 9 7 4 4 5 5 3 3 5 3 3 2 2 2 2 3 3 4 5 5 5 4 5 4 9 7 10 6 10 14 15 11 7 7 6 2
9 7 7 8 9 7 7 6 6 6 5 5 5 4 4 4 3 3 4 4 5 6 4 5 5 4 5 7 8 8 5 6 9 10 3 2 3 4 5 4 4 4 4
8 8 9 8 9 7 7 7 6 6 6 5 5 6 4 3 4 3 4 10 13 15 15 15 8 7 14 17 16 16 16 18 19 7 5 6 4 4 4 4 5 5 9
Wind_Direction
33 28 26 25 26 29 34 29 28 20 23 20 4 11 46 43 51 58 47 42 3 30 114 147 151 152 149 144 137 126 126 112 132 103 72 50 44 34 29 33 31 35 10
33 27 24 22 26 22 25 29 25 19 23 36 20 12 29 55 67 59 68 53 53 36 29 94 156 148 138 147 147 147 142 118 184 123 108 112 36 26 18 31 30 21 14
33 29 27 23 18 20 16 27 24 23 17 9 12 66 38 45 0 24 43 56 66 50 52 34 28 118 142 167 162 160 150 158 192 180 125 135 155 183 2 15 23 1 33
39 36 33 27 17 12 22 19 26 26 21 15 28 43 47 78 18 16 42 45 37 53 82 48 53 30 85 148 201 178 169 165 166 171 342 59 128 167 149 32 344 331 40
45 43 37 32 22 17 20 19 22 23 21 30 31 45 64 67 59 38 66 56 28 53 63 76 89 29 53 85 34 259 183 200 173 161 156 91 48 70 135 133 181 344 9
43 44 40 34 26 23 20 24 23 24 17 21 38 44 47 59 74 45 59 55 20 29 35 41 72 100 75 96 106 39 30 353 157 151 134 196 151 180 153 128 135 142 141
49 44 33 29 26 24 20 24 24 24 18 22 26 39 45 41 51 51 41 53 36 25 49 13 50 59 51 82 81 103 51 59 4 43 92 99 17 112 115 112 127 152 121
46 43 32 30 24 24 21 19 24 25 22 21 26 25 33 44 46 39 37 61 38 40 55 32 61 44 37 105 98 87 51 275 125 90 49 60 34 99 122 145 150 123 115
47 41 33 30 23 19 17 17 20 27 25 23 26 28 29 32 40 40 41 35 36 12 55 20 54 68 74 46 62 83 102 77 35 50 124 36 21 16 115 137 177 141 149
51 42 36 29 25 18 14 19 21 27 25 25 27 29 29 29 31 35 36 34 31 30 36 23 45 41 36 69 78 84 91 85 67 64 64 67 25 2 313 184 168 122 223
58 49 38 31 26 20 20 18 20 22 21 24 24 29 27 28 33 34 28 31 34 30 29 29 27 40 43 44 40 72 92 118 126 111 116 93 64 55 352 321 98 147 124
71 60 45 32 28 25 21 20 16 21 18 21 26 27 24 26 31 29 27 25 28 27 31 37 37 32 28 36 42 43 60 67 89 103 110 111 84 75 41 25 6 128 107
62 51 44 32 26 24 24 20 17 16 18 24 26 25 24 24 23 23 24 25 27 27 28 29 32 35 31 33 22 43 59 54 47 34 27 116 125 112 101 64 316 37 51
65 59 38 31 25 27 23 17 17 15 14 26 30 29 20 16 19 22 23 23 23 26 27 27 28 23 24 36 36 36 35 52 71 81 65 38 326 157 152 155 174 164 153
43 41 42 24 22 24 16 18 11 13 11 28 30 22 14 19 20 21 20 21 24 22 22 26 26 19 15 4 10 46 45 32 32 34 40 101 103 104 105 90 180 156 157
36 21 13 25 22 18 3 14 7 1 10 28 29 16 18 21 19 19 18 19 16 16 18 19 21 17 4 14 20 44 29 30 36 17 17 14 33 44 78 97 99 86 100
346 346 331 315 327 338 41 14 348 340 19 23 15 23 19 24 18 14 21 20 12 5 9 8 16 10 356 8 15 50 33 22 7 344 348 339 11 23 20 23 42 59 134
314 315 315 313 309 322 258 205 70 19 14 13 2 13 21 21 14 19 18 17 10 360 355 20 22 13 359 1 1 17 24 14 5 344 337 324 344 307 282 349 359 8 19
259 264 261 255 280 281 277 276 349 138 124 66 289 320 10 7 4 13 357 352 3 354 5 22 12 355 360 347 345 9 4 360 350 339 351 319 305 288 280 211 247 289 303
248 264 262 231 249 265 176 153 300 346 323 289 230 211 183 128 352 318 329 306 338 14 2 354 10 340 344 335 337 337 352 345 336 309 303 301 292 259 264 269 207 227 233
268 249 221 230 238 222 154 228 241 273 253 276 293 265 210 207 200 263 301 331 348 352 349 350 330 324 329 334 328 326 321 319 309 318 319 323 301 294 294 284 212 217 218
274 269 238 239 241 202 177 223 219 235 216 216 244 264 275 292 36 58 315 346 14 8 335 337 331 331 317 324 328 323 316 290 270 277 271 277 291 285 286 291 294 295 263
274 250 237 256 252 223 192 222 236 207 205 184 219 236 262 269 256 276 300 338 14 9 306 318 313 304 313 319 321 325 325 316 308 292 296 299 326 329 277 286 282 287 308
262 252 255 248 254 228 223 217 238 208 177 208 224 226 214 260 262 254 193 181 249 264 249 267 272 279 299 297 302 301 302 300 301 295 300 277 279 296 301 315 341 342 295
269 259 249 252 249 234 233 225 218 189 206 211 223 228 213 240 255 240 224 212 235 199 224 232 216 226 271 264 268 267 251 244 254 266 213 245 254 257 261 256 260 273 302
271 266 261 257 258 241 236 232 207 190 197 209 223 220 211 220 227 235 281 278 277 278 286 286 244 227 241 270 272 270 274 282 285 287 249 237 257 262 270 261 248 237 253